Weather reports worldwide

Advertisment
Pershore, United Kingdom (3529): temperature & dewpoint: 04.12.2018 03:00:00 - 10.12.2018 03:00:00 (GMT)Pershore, United Kingdom (3529): temperature -20cm & temperature -100cm: 04.12.2018 03:00:00 - 10.12.2018 03:00:00 (GMT)Pershore, United Kingdom (3529): wind speed & gusts: 04.12.2018 03:00:00 - 10.12.2018 03:00:00 (GMT)Pershore, United Kingdom (3529): wind direction: 04.12.2018 03:00:00 - 10.12.2018 03:00:00 (GMT)Pershore, United Kingdom (3529): reduced air pressure: 04.12.2018 03:00:00 - 10.12.2018 03:00:00 (GMT)Pershore, United Kingdom (3529): visibility: 04.12.2018 03:00:00 - 10.12.2018 03:00:00 (GMT)Pershore, United Kingdom (3529): precipitation: 04.12.2018 03:00:00 - 10.12.2018 03:00:00 (GMT)
Date & Time tt [°C] td [°C] tt -20cm [°C] tt -100cm [°C] ff [km/h] ff [kn] fx [km/h] fx [kn] dd ppp [hPa] vv [km] rr [mm]
10.12.2018 03:00:00 6,7 4,4 - - 8 4 - - W 1024,9 35 0,0
10.12.2018 02:00:00 6,7 4,7 - - 5 3 - - WSW 1024,5 45 0,0
10.12.2018 01:00:00 6,4 4,6 - - 11 6 - - WSW 1024,1 45 0,0
10.12.2018 00:00:00 5,3 4,0 - - 9 5 - - SW 1023,6 45 0,0
09.12.2018 23:00:00 6,6 4,5 - - 8 4 - - WSW 1023,0 50 0,0
09.12.2018 22:00:00 6,7 4,2 - - 8 4 - - WSW 1022,7 50 0,0
09.12.2018 21:00:00 6,9 4,3 - - 8 4 - - WSW 1021,9 50 0,0
09.12.2018 20:00:00 6,8 4,1 - - 8 4 - - WSW 1021,1 50 0,0
09.12.2018 19:00:00 7,4 4,5 - - 13 7 - - W 1020,3 50 0,0
09.12.2018 18:00:00 7,7 4,4 - - 15 8 - - WNW 1019,2 50 0,0
09.12.2018 17:00:00 8,9 4,7 - - 9 5 - - W 1018,1 50 0,0
09.12.2018 16:00:00 9,0 5,4 - - 13 7 - - W 1016,9 45 0,0
09.12.2018 15:00:00 9,4 4,6 - - 22 12 - - WNW 1015,5 45 0,0
09.12.2018 14:00:00 10,6 5,4 - - 22 12 - - WNW 1013,7 30 0,0
09.12.2018 13:00:00 10,9 6,7 - - 18 10 - - WNW 1012,2 24 0,0
09.12.2018 12:00:00 9,2 5,7 - - 16 9 - - NW 1011,3 35 0,0
09.12.2018 11:00:00 9,2 6,4 - - 13 7 - - NW 1010,1 26 0,0
09.12.2018 10:00:00 8,3 6,7 - - 16 9 - - NW 1008,4 45 0,2
09.12.2018 09:00:00 8,2 7,0 8,5 10,0 15 8 - - NW 1006,4 40 1,2
09.12.2018 08:00:00 9,2 6,0 - - 22 12 - - W 1003,7 45 0,0
09.12.2018 07:00:00 9,0 6,0 - - 26 14 - - W 1001,7 45 0,0
09.12.2018 06:00:00 9,3 6,0 - - 28 15 - - W 1000,4 30 0,0
09.12.2018 05:00:00 9,1 6,0 - - 21 11 50 27 W 999,7 30 0,0
09.12.2018 04:00:00 9,0 5,8 - - 28 15 50 27 W 998,7 28 0,2
09.12.2018 03:00:00 9,1 5,3 - - 21 11 46 25 W 998,9 25 0,0
09.12.2018 02:00:00 9,0 4,8 - - 18 10 46 25 W 999,2 18 0,0
09.12.2018 01:00:00 8,7 4,8 - - 18 10 - - W 998,9 20 0,0
09.12.2018 00:00:00 8,5 4,5 - - 22 12 54 29 W 998,8 25 0,0
08.12.2018 23:00:00 9,1 4,9 - - 21 11 48 26 W 998,6 22 0,0
08.12.2018 22:00:00 8,2 6,1 - - 21 11 46 25 W 998,5 15 0,4
08.12.2018 21:00:00 9,3 5,1 - - 26 14 46 25 WSW 998,3 30 0,0
08.12.2018 20:00:00 9,2 5,1 - - 24 13 46 25 W 998,3 28 0,0
08.12.2018 19:00:00 10,0 4,5 - - 22 12 - - WSW 997,9 15 0,0
08.12.2018 18:00:00 10,5 4,8 - - 21 11 68 37 W 997,4 16 0,0
08.12.2018 17:00:00 11,3 5,2 - - 24 13 57 31 W 997,4 13 0,0
08.12.2018 16:00:00 11,6 5,7 - - 28 15 55 30 W 997,3 14 0,0
08.12.2018 15:00:00 12,4 7,3 - - 26 14 55 30 SW 997,3 19 0,0
08.12.2018 14:00:00 12,7 7,9 - - 24 13 - - WSW 998,8 40 0,0
08.12.2018 13:00:00 10,6 8,9 - - 24 13 - - SSW 1000,0 21 0,0
08.12.2018 12:00:00 10,6 5,7 - - 21 11 - - SSW 1002,0 16 0,0
08.12.2018 11:00:00 10,2 4,9 - - 16 9 - - WSW 1004,1 17 0,0
08.12.2018 10:00:00 10,2 5,0 - - 18 10 - - WSW 1004,6 12 0,0
08.12.2018 09:00:00 8,7 4,8 8,7 10,0 15 8 - - W 1005,2 30 0,0
08.12.2018 08:00:00 8,8 4,2 - - 26 14 50 27 W 1005,0 45 0,0
08.12.2018 07:00:00 8,9 3,7 - - 22 12 59 32 W 1004,4 30 0,0
08.12.2018 06:00:00 9,2 4,2 - - 26 14 55 30 W 1003,8 23 0,0
08.12.2018 05:00:00 9,3 4,2 - - 31 17 57 31 W 1003,2 30 0,0
08.12.2018 04:00:00 9,2 4,2 - - 34 18 67 36 W 1002,7 30 0,0
08.12.2018 03:00:00 9,1 4,3 - - 31 17 61 33 W 1002,4 30 0,0
08.12.2018 02:00:00 9,2 4,4 - - 34 18 55 30 W 1002,6 30 0,0
08.12.2018 01:00:00 8,6 4,4 - - 22 12 55 30 W 1002,5 28 0,0
08.12.2018 00:00:00 9,1 3,5 - - 28 15 55 30 W 1002,7 24 0,0
07.12.2018 23:00:00 8,6 3,1 - - 22 12 48 26 W 1002,9 24 0,0
07.12.2018 22:00:00 8,5 3,4 - - 24 13 54 29 WSW 1003,1 25 0,0
07.12.2018 21:00:00 7,4 3,2 - - 13 7 52 28 SW 1003,3 35 0,0
07.12.2018 20:00:00 7,6 2,6 - - 21 11 - - WSW 1003,6 45 0,0
07.12.2018 19:00:00 6,9 2,3 - - 21 11 - - WSW 1003,3 40 0,0
07.12.2018 18:00:00 6,4 2,2 - - 18 10 - - W 1002,8 50 0,0
07.12.2018 17:00:00 5,7 3,0 - - 22 12 48 26 W 1002,4 25 0,4
07.12.2018 16:00:00 7,7 1,3 - - 24 13 - - W 1001,1 40 0,0
07.12.2018 15:00:00 7,5 2,9 - - 21 11 55 30 WSW 1000,8 26 0,0
07.12.2018 14:00:00 8,5 1,8 - - 24 13 59 32 W 1000,8 24 0,0
07.12.2018 13:00:00 9,7 3,4 - - 24 13 - - W 1000,3 16 0,0
07.12.2018 12:00:00 9,7 4,6 - - 21 11 48 26 W 1000,1 25 0,0
07.12.2018 11:00:00 9,6 5,7 - - 18 10 - - W 1000,0 14 0,0
07.12.2018 10:00:00 9,6 7,2 - - 18 10 - - W 999,7 25 0,0
07.12.2018 09:00:00 9,8 8,4 9,0 10,0 22 12 46 25 W 999,1 17 1,6
07.12.2018 08:00:00 12,0 11,4 - - 24 13 46 25 SSW 998,1 7 0,6
07.12.2018 07:00:00 12,3 11,5 - - 29 16 46 25 SSW 998,8 3,7 1,2
07.12.2018 06:00:00 12,4 11,6 - - 28 15 - - SSW 1000,1 8 1,0
07.12.2018 05:00:00 12,6 11,8 - - 28 15 - - SSW 1001,4 4,9 0,6
07.12.2018 04:00:00 12,8 12,0 - - 24 13 - - SSW 1003,0 13 0,4
07.12.2018 03:00:00 12,7 12,0 - - 26 14 - - SSW 1004,7 45 0,0
07.12.2018 02:00:00 12,5 12,2 - - 18 10 - - SSW 1005,9 6 0,6
07.12.2018 01:00:00 12,6 12,0 - - 21 11 - - S 1007,0 6 0,0
07.12.2018 00:00:00 12,5 11,6 - - 24 13 - - SSW 1008,2 14 0,0
06.12.2018 23:00:00 12,2 11,5 - - 21 11 - - SSW 1009,4 40 0,0
06.12.2018 22:00:00 11,9 11,2 - - 21 11 - - S 1010,2 28 0,0
06.12.2018 21:00:00 11,7 11,1 - - 18 10 - - SSW 1010,7 24 0,0
06.12.2018 20:00:00 12,4 11,2 - - 21 11 - - SSW 1011,2 50 0,0
06.12.2018 19:00:00 12,2 11,2 - - 24 13 - - SSW 1011,4 40 0,0
06.12.2018 18:00:00 12,2 11,1 - - 15 8 - - S 1011,4 40 0,0
06.12.2018 17:00:00 12,1 11,0 - - 21 11 - - SW 1011,1 50 0,0
06.12.2018 16:00:00 12,2 10,9 - - 28 15 - - SSW 1011,1 45 0,0
06.12.2018 15:00:00 11,7 10,6 - - 22 12 - - SW 1011,6 40 0,0
06.12.2018 14:00:00 11,4 10,2 - - 22 12 - - SSW 1011,6 40 0,0
06.12.2018 13:00:00 11,4 9,3 - - 21 11 - - SSW 1012,5 29 0,0
06.12.2018 12:00:00 11,5 9,8 - - 21 11 - - SSW 1012,8 45 0,0
06.12.2018 11:00:00 11,4 10,5 - - 22 12 - - SSW 1013,4 40 0,0
06.12.2018 10:00:00 11,2 10,5 - - 18 10 - - SSW 1013,4 35 0,2
06.12.2018 09:00:00 10,9 10,2 8,4 10,0 21 11 - - S 1013,3 23 0,2
06.12.2018 08:00:00 10,9 10,2 - - 16 9 - - SSW 1013,2 29 0,0
06.12.2018 07:00:00 10,4 9,8 - - 16 9 - - SSW 1012,8 24 0,0
06.12.2018 06:00:00 9,6 9,1 - - 11 6 - - SSW 1012,7 9 0,0
06.12.2018 05:00:00 9,4 8,8 - - 9 5 - - SSW 1013,0 8 0,0
06.12.2018 04:00:00 10,0 9,2 - - 11 6 - - SSW 1012,9 10 0,0
06.12.2018 03:00:00 9,8 9,4 - - 8 4 - - S 1011,9 9 0,0
06.12.2018 02:00:00 9,8 9,3 - - 13 7 - - SW 1012,9 4,8 0,0
06.12.2018 01:00:00 10,4 10,0 - - 8 4 - - SSW 1011,6 8 0,0
06.12.2018 00:00:00 10,7 10,2 - - 13 7 - - SSW 1011,0 6 0,0
05.12.2018 23:00:00 10,8 10,4 - - 13 7 - - SSW 1010,5 3,4 0,0
05.12.2018 22:00:00 11,4 10,8 - - 15 8 - - SSW 1010,0 7 0,0
05.12.2018 21:00:00 11,9 11,1 - - 13 7 - - SW 1009,6 11 0,0
05.12.2018 20:00:00 11,6 11,2 - - 16 9 - - SSW 1008,8 9 0,0
05.12.2018 19:00:00 11,8 11,3 - - 15 8 - - SW 1008,1 10 0,0
05.12.2018 18:00:00 11,9 11,1 - - 16 9 - - SSW 1008,0 30 0,0
05.12.2018 17:00:00 12,0 11,2 - - 21 11 - - SSW 1007,6 35 0,0
05.12.2018 16:00:00 12,1 11,4 - - 13 7 - - SW 1007,7 40 0,6
05.12.2018 15:00:00 11,9 11,2 - - 15 8 - - S 1007,5 12 0,8
05.12.2018 14:00:00 12,2 11,3 - - 21 11 - - S 1008,9 4,2 0,2
05.12.2018 13:00:00 12,3 11,1 - - 21 11 - - S 1009,6 5 0,4
05.12.2018 12:00:00 12,5 10,7 - - 16 9 - - S 1010,4 10 0,0
05.12.2018 11:00:00 11,1 10,2 - - 13 7 - - SSE 1011,8 19 0,0
05.12.2018 10:00:00 9,9 9,5 - - 13 7 - - SSE 1012,6 11 0,0
05.12.2018 09:00:00 8,4 8,0 7,7 10,0 15 8 - - SE 1013,4 12 0,0
05.12.2018 08:00:00 7,6 7,2 - - 11 6 - - SE 1013,9 40 0,0
05.12.2018 07:00:00 6,9 6,6 - - 5 3 - - E 1014,6 9 1,0
05.12.2018 06:00:00 6,8 6,3 - - 9 5 - - E 1015,4 4,1 0,0
05.12.2018 05:00:00 6,5 6,0 - - 9 5 - - E 1016,2 8 0,2
05.12.2018 04:00:00 6,2 5,6 - - 21 11 - - ESE 1016,8 6 0,4
05.12.2018 03:00:00 5,5 5,0 - - 16 9 - - E 1018,1 3,2 0,2
05.12.2018 02:00:00 4,4 3,7 - - 13 7 - - E 1019,4 6 0,4
05.12.2018 01:00:00 4,1 3,3 - - 11 6 - - E 1020,5 29 1,8
05.12.2018 00:00:00 4,2 3,3 - - 9 5 - - E 1021,4 12 1,0
04.12.2018 23:00:00 4,4 3,6 - - 8 4 - - ESE 1022,3 21 1,2
04.12.2018 22:00:00 4,2 3,6 - - 5 3 - - ESE 1022,9 20 0,8
04.12.2018 21:00:00 4,5 3,6 - - 5 3 - - SE 1023,0 17 0,8
04.12.2018 20:00:00 5,1 3,6 - - 11 6 - - S 1023,2 15 0,4
04.12.2018 19:00:00 5,5 4,4 - - 9 5 - - SSW 1023,2 11 0,0
04.12.2018 18:00:00 4,1 3,7 - - 4 2 - - SSE 1023,2 14 0,0
04.12.2018 17:00:00 3,9 3,4 - - 2 1 - - W 1023,2 8 0,0
04.12.2018 16:00:00 4,5 3,8 - - 0 0 - - N 1023,2 9 0,0
04.12.2018 15:00:00 4,9 4,1 - - 2 1 - - ENE 1022,9 15 0,0
04.12.2018 14:00:00 5,1 4,1 - - 0 0 - - N 1022,8 18 0,0
04.12.2018 13:00:00 5,3 4,1 - - 0 0 - - N 1023,0 11 0,0
04.12.2018 12:00:00 4,8 3,6 - - 0 0 - - N 1022,8 28 0,0
04.12.2018 11:00:00 4,0 3,0 - - 4 2 - - N 1022,7 24 0,0
04.12.2018 10:00:00 3,1 2,9 - - 0 0 - - N 1022,6 15 0,0
04.12.2018 09:00:00 -1,3 -1,5 8,7 10,0 2 1 - - NNE 1021,8 9 0,0
04.12.2018 08:00:00 -2,3 -2,6 - - 2 1 - - NW 1021,1 3,2 0,0
04.12.2018 07:00:00 -1,8 -2,1 - - 2 1 - - ENE 1020,3 16 0,0
04.12.2018 06:00:00 -1,7 -2,0 - - 2 1 - - NE 1019,0 18 0,0
04.12.2018 05:00:00 -1,5 -1,8 - - 2 1 - - SW 1018,1 19 0,0
04.12.2018 04:00:00 -1,7 -2,1 - - 2 1 - - S 1017,2 0,3 0,0
04.12.2018 03:00:00 -1,1 -1,5 - - 2 1 - - SSE 1016,3 35 0,0

tt = temperature
td = dewpoint
tt -20cm = temperature -20cm
tt -100cm = temperature -100cm
ff = wind speed
fx = gusts
dd = wind direction
ppp = reduced air pressure
vv = visibility
rr = precipitation

Next stations